User: anonymous   Login
Location: Unspecified
(0.0000°N, 0.0000°E)
Time: 08:52:24
(UTC+00:00)
Language:

STARLINK-34884 - Orbit

View from above orbital plane
View from above orbital plane
View from above satellite
View from above satellite

Ground track
Ground track

The orbit is defined by the following mean orbital elements,

1 66287U          26145.41036341 +.00000000 +00000-0 +82464-3 0 00009
2 66287  53.1599 194.1106 0001189  87.2171 272.8967 15.34443743    09
Epoch (UTC): 25 May 2026 09:50:55
Eccentricity: 0.0001189
inclination: 53.1599°
perigee height: 462 km
apogee height: 463 km
right ascension of ascending node: 194.1106°
argument of perigee: 87.2171°
revolutions per day: 15.34443743
mean anomaly at epoch: 272.8967°

The dashed part of the orbit path shows where the satellite is in the earth's shadow,  

DLR